Wind_Speed
9 9 9 10 10 9 8 7 7 7 7 7 8 8 8 8 8 8 8 7 7 7 7 7 7 7 7 7 8 9 9 10 11 11 11 12 12 12 12 12 13 13 13 13 13 13 13 13 14 14 14 14 14 14 14 14 15 15 15 14 14 15 15 15 15 15 15 16 17 18 19 20 22 23 23 24 24 23 23 24 25 28 29 30 30
9 9 8 9 9 8 6 6 6 6 7 8 8 7 7 6 7 7 7 7 6 6 6 5 5 6 6 7 8 9 10 11 11 11 12 12 12 12 13 12 12 13 12 12 12 12 12 12 13 13 13 13 13 13 13 14 14 14 14 14 14 14 14 15 15 15 16 17 17 18 19 21 23 24 24 24 24 23 23 25 27 28 29 30 31
9 9 8 8 7 6 5 5 5 6 6 7 7 6 5 5 6 6 6 6 5 4 3 4 5 5 6 7 8 9 10 11 12 12 12 12 13 13 12 12 12 11 11 11 11 11 12 12 12 12 12 12 12 12 12 13 13 12 13 13 14 14 15 15 15 16 17 17 18 19 20 21 23 25 25 24 24 23 25 26 27 28 29 31 32
8 9 9 8 6 5 4 4 4 4 4 5 4 3 4 6 6 6 4 3 3 3 3 3 5 6 7 8 9 9 10 11 12 12 12 12 12 12 12 11 11 10 11 11 11 11 12 12 11 11 11 11 11 11 11 12 12 12 13 13 14 14 15 15 16 17 17 18 18 19 20 21 24 26 26 24 23 24 25 27 28 29 29 30 32
8 9 9 7 5 4 3 3 3 2 3 4 4 3 5 6 5 4 3 2 2 3 3 4 5 6 7 8 9 10 10 11 11 12 12 11 11 11 10 10 10 11 11 11 11 11 11 11 11 11 11 11 11 11 11 11 12 12 13 13 14 14 15 16 17 17 17 18 18 19 20 21 24 27 26 25 24 25 27 28 29 30 30 31 32
7 8 8 6 4 4 4 3 2 1 3 5 4 4 4 3 2 2 2 2 2 3 4 5 6 7 7 8 9 9 10 10 10 10 10 10 10 10 10 10 11 11 11 12 11 11 11 11 11 11 11 11 11 11 11 12 12 13 13 13 14 14 14 16 16 17 17 18 19 19 20 21 24 27 24 25 26 27 28 29 30 31 32 33 33
6 7 7 4 4 4 3 3 2 2 4 4 3 3 2 2 2 2 2 2 3 4 5 6 7 7 8 7 8 8 9 9 9 9 8 9 9 9 10 10 11 11 11 11 11 11 11 11 11 11 11 11 11 12 12 13 13 13 14 14 14 14 15 16 16 16 17 17 18 19 21 21 23 27 24 24 27 27 29 30 31 32 33 34 35
6 7 5 4 4 3 4 3 2 2 3 3 2 2 2 3 3 2 2 3 5 6 6 7 7 8 7 7 7 7 8 8 8 8 8 8 9 9 10 10 10 11 11 11 11 10 10 10 10 11 11 12 12 13 13 14 14 14 15 15 15 15 15 16 17 17 18 18 19 20 20 20 23 27 25 23 26 27 29 30 31 32 33 34 35
5 7 6 5 4 4 4 3 2 1 2 2 2 2 3 3 3 3 4 5 6 6 6 7 7 8 8 8 8 8 8 8 8 8 8 8 9 9 9 10 10 10 10 10 10 10 10 11 11 11 12 12 13 13 14 15 15 16 16 16 16 16 16 16 18 18 19 19 20 21 20 21 22 25 25 24 25 26 28 28 29 30 31 32 34
4 5 6 5 4 5 5 3 1 1 1 2 2 2 3 3 4 5 5 6 6 6 7 7 7 8 8 8 9 9 8 8 7 7 7 8 8 8 9 9 10 10 10 10 10 11 11 11 11 12 12 13 14 14 15 16 16 17 16 16 16 17 16 16 18 19 19 20 21 21 21 21 21 22 24 25 25 25 26 27 27 28 28 29 31
4 5 6 6 5 5 4 3 1 1 2 2 2 3 4 4 5 6 7 7 7 8 8 8 8 9 9 10 10 9 8 8 7 7 7 7 8 8 9 9 10 10 10 11 11 11 11 11 12 12 13 14 15 15 16 17 17 17 16 16 16 17 16 16 17 18 18 18 19 19 20 20 19 20 22 23 24 25 25 26 26 27 27 27 28
5 6 7 6 5 5 4 3 2 2 2 2 2 3 5 6 7 6 7 8 8 9 9 9 10 10 10 10 10 9 9 8 8 8 8 8 8 9 9 9 10 10 10 10 11 11 11 11 12 13 14 14 15 16 16 17 16 16 16 16 16 16 16 16 16 17 17 18 18 18 19 19 18 19 20 21 23 24 24 25 26 26 26 26 26
6 7 7 5 5 5 4 3 3 3 2 3 3 5 6 6 6 6 7 8 9 9 10 11 11 11 11 11 11 10 10 10 9 9 9 9 9 10 10 10 10 10 10 10 10 11 11 12 12 13 14 15 16 16 16 16 16 16 16 16 16 16 16 17 17 17 18 18 18 18 18 17 17 18 19 20 21 22 23 24 25 25 26 25 25
7 7 6 5 6 6 6 5 4 3 3 3 4 5 5 5 5 6 7 8 9 10 11 11 12 12 12 12 12 12 12 11 10 10 10 10 10 10 10 10 10 10 10 10 10 11 11 12 13 13 14 15 16 16 16 16 16 16 16 16 16 16 16 17 17 18 18 18 18 19 19 17 18 19 18 20 21 22 22 22 23 24 25 25 25
6 6 6 6 6 6 6 5 4 3 3 3 4 4 4 4 5 6 7 9 10 11 12 12 12 12 12 12 13 12 12 11 10 10 10 10 10 11 11 11 11 11 11 11 11 11 12 12 13 14 14 15 15 15 15 15 15 16 16 16 16 16 16 17 18 18 18 19 18 19 20 19 19 20 20 20 21 22 22 22 22 22 23 24 24
7 7 6 7 7 6 6 5 4 3 3 3 4 3 3 4 5 6 8 9 10 11 12 12 12 12 12 12 12 12 12 11 10 10 10 10 11 11 11 11 11 11 11 11 12 12 12 13 13 13 14 15 15 15 15 15 16 16 16 16 17 17 17 17 17 18 18 19 19 19 19 20 21 21 21 20 21 22 22 23 23 23 22 23 23
8 7 6 6 7 7 7 5 4 3 2 3 2 2 3 4 5 7 8 9 10 11 11 11 12 12 12 12 12 12 12 11 10 9 10 10 10 11 12 12 12 12 12 12 12 12 12 12 13 13 14 15 15 15 15 15 16 16 16 16 17 18 17 17 17 18 19 19 19 19 19 20 21 21 21 21 22 22 22 23 23 23 23 23 24
7 7 7 6 6 6 6 5 3 2 1 1 1 2 3 4 5 7 8 9 10 11 11 12 12 12 12 12 12 12 11 11 10 9 9 10 10 11 12 12 12 12 12 12 12 12 12 13 13 14 14 15 15 16 16 15 16 16 17 16 17 18 18 18 18 18 19 19 19 19 19 20 20 20 21 22 22 23 23 23 23 23 23 24 24
7 7 7 6 6 5 4 3 2 1 0 1 1 3 4 4 6 7 9 10 11 11 12 12 12 12 12 12 11 11 11 11 10 9 9 10 10 11 12 12 12 12 12 12 12 13 13 13 13 14 15 15 15 16 16 15 16 17 17 17 17 18 18 18 18 18 18 19 19 19 19 20 20 20 21 22 23 23 23 23 23 23 24 24 24
7 7 6 6 5 4 3 2 1 1 2 2 2 4 5 6 7 8 9 10 11 12 12 12 12 12 12 12 12 12 11 11 10 10 10 10 10 11 12 12 13 12 12 12 13 13 13 13 14 15 15 15 16 16 17 16 16 16 17 18 18 18 19 18 18 19 19 19 20 19 20 21 21 21 21 22 23 23 24 24 24 24 24 25 25
6 7 6 5 4 2 2 1 1 2 3 3 4 5 6 7 8 9 10 11 11 12 12 12 12 11 11 11 12 11 11 11 10 10 10 10 10 11 12 12 13 13 13 13 13 14 13 13 14 15 16 16 16 17 18 17 16 16 17 18 19 19 20 20 19 19 19 20 20 19 20 21 22 22 22 23 24 24 25 25 25 25 25 25 25
6 6 6 4 3 1 0 0 2 3 4 5 6 6 7 8 8 9 10 11 11 12 11 11 11 11 11 11 11 11 12 12 11 10 10 11 11 11 12 13 13 13 14 14 14 14 13 13 14 15 16 16 17 17 18 18 17 17 18 19 19 19 20 21 21 21 21 21 21 20 20 21 22 23 23 24 25 25 26 26 26 27 27 27 26
4 5 5 3 2 1 1 2 3 3 5 6 7 8 9 9 10 11 11 11 11 11 11 11 11 11 11 11 11 12 12 12 12 11 11 11 11 11 12 12 13 13 14 13 13 13 14 13 14 15 16 17 17 18 19 19 19 19 19 20 20 20 21 21 22 23 23 23 23 22 22 21 22 23 24 25 25 26 27 27 27 27 28 28 28
4 3 4 1 1 1 2 3 4 5 6 7 8 9 10 11 12 12 12 12 12 11 11 11 11 11 11 12 12 13 12 13 12 11 11 10 10 11 11 12 12 13 14 14 14 14 15 15 15 16 17 18 19 19 20 20 21 21 22 22 22 23 23 23 23 24 24 25 25 25 24 23 22 22 23 25 26 27 28 28 28 28 28 28 28
3 2 2 0 1 2 3 5 6 6 7 8 9 10 11 12 12 12 12 12 11 11 12 11 11 11 12 13 13 13 13 13 13 12 12 12 12 13 13 14 15 15 16 16 16 16 16 17 17 17 18 19 19 19 20 20 21 22 23 23 23 23 24 24 24 24 25 25 26 26 26 24 23 22 23 25 26 28 29 29 28 28 28 28 28
2 1 0 1 3 4 5 6 6 7 8 9 10 11 11 12 11 11 11 11 11 11 12 12 12 12 13 14 14 14 14 14 13 12 12 13 13 14 15 16 16 17 17 16 16 16 16 17 17 18 18 19 19 19 20 20 21 22 22 23 24 24 24 25 24 25 25 26 26 27 27 26 25 25 24 25 25 27 29 29 29 29 28 28 28
1 2 2 3 4 5 6 7 7 8 8 10 10 10 11 11 11 11 11 11 12 12 12 12 12 12 13 14 14 14 14 14 13 12 12 13 13 14 15 15 16 16 16 16 16 16 16 17 17 18 19 19 19 20 20 21 21 22 23 24 25 25 25 25 25 25 26 27 27 27 28 28 27 27 27 28 27 28 29 30 30 29 28 28 28
2 3 3 4 5 6 7 7 8 9 9 10 10 10 10 10 10 10 11 11 12 12 12 12 12 12 13 14 14 14 15 14 13 12 12 12 13 14 14 15 16 16 16 17 16 16 17 17 17 18 18 19 20 21 21 22 23 23 24 24 24 25 24 25 25 25 25 27 27 28 28 29 29 29 29 29 29 30 30 30 31 30 28 28 28
3 4 5 5 6 7 8 8 9 10 10 10 10 10 10 10 10 10 11 12 12 13 12 12 12 12 13 14 14 15 14 14 13 12 12 12 12 13 14 15 15 16 16 17 17 17 17 18 18 18 18 20 21 21 22 23 23 23 24 24 23 24 23 24 25 25 25 26 27 29 29 29 29 29 29 29 30 31 30 29 29 29 28 28 28
5 6 6 6 7 8 8 9 9 9 9 10 10 10 10 10 10 11 11 11 12 12 11 11 11 12 12 13 14 14 14 13 12 12 12 12 12 13 14 14 15 16 16 17 18 18 18 18 18 19 19 20 21 22 22 22 22 22 23 23 23 23 23 23 24 25 26 26 28 29 29 29 29 29 29 29 30 31 30 28 28 28 28 29 30
6 7 7 7 8 8 9 9 9 9 9 9 10 10 10 10 11 11 11 11 11 12 11 11 11 11 12 13 13 13 13 12 11 11 12 12 13 14 14 14 15 16 17 17 18 19 19 19 19 20 20 20 20 21 20 21 21 21 21 22 22 23 23 24 25 25 25 27 28 29 29 29 29 30 29 29 29 29 29 27 27 28 29 29 30
7 7 8 8 8 9 9 9 9 9 9 9 10 10 10 10 11 11 11 10 10 11 11 11 11 12 12 12 13 12 11 11 10 11 12 12 13 12 13 14 15 16 17 17 18 19 19 19 19 19 19 19 19 19 19 19 20 21 21 21 22 23 23 24 25 26 26 27 28 28 28 28 28 29 29 29 28 27 28 27 27 27 29 30 30
8 8 8 8 8 9 9 9 9 9 9 9 9 9 10 10 10 10 10 10 10 10 11 11 11 11 12 12 12 11 10 10 10 11 12 12 12 11 13 14 14 15 17 17 17 18 18 17 17 17 17 18 18 18 18 20 20 21 22 22 23 24 24 24 25 26 26 26 27 27 27 27 28 28 28 27 27 26 26 27 28 28 29 30 32
8 8 8 8 9 9 9 9 9 9 8 9 9 8 9 10 10 9 9 9 9 10 10 11 12 12 12 12 12 11 10 9 9 11 11 11 11 12 13 13 14 15 17 17 18 18 18 17 16 16 17 17 18 18 19 20 21 22 23 24 24 24 24 24 25 25 26 26 26 27 27 27 27 28 28 27 26 25 25 27 29 30 31 31 33
8 8 8 8 8 8 8 8 8 8 8 8 8 8 8 9 9 8 8 9 10 10 11 12 13 14 14 13 11 10 9 10 10 11 11 11 12 12 12 13 14 16 17 18 19 19 18 18 18 18 18 18 19 19 20 21 21 22 24 24 24 24 24 24 25 25 26 26 26 27 27 27 27 28 28 27 26 25 25 28 30 32 33 32 33
8 7 8 7 8 8 8 8 8 7 7 7 7 8 8 8 9 8 8 8 9 10 11 12 14 14 14 12 10 10 10 10 10 10 11 11 12 12 12 13 15 16 17 18 19 19 19 20 20 20 20 20 20 20 20 21 21 22 23 23 24 24 24 24 24 25 25 26 26 27 27 27 26 27 27 25 25 26 27 28 30 32 33 33 34
5 6 6 6 6 7 7 7 7 6 6 6 6 7 8 7 8 7 8 8 8 10 11 13 13 12 12 10 9 10 10 10 10 10 11 11 11 11 13 14 16 16 18 18 19 20 20 20 20 20 20 20 21 21 20 21 22 22 23 24 24 25 25 24 24 25 26 27 27 27 27 26 26 25 24 24 25 28 29 29 30 32 33 34 35
4 4 5 5 6 6 6 6 6 5 5 6 6 6 7 7 7 6 7 8 8 9 11 13 12 11 9 9 9 10 10 10 10 11 11 11 11 12 14 15 16 17 18 19 19 20 20 20 21 21 22 22 22 22 22 22 22 23 23 24 25 26 26 26 26 27 28 28 26 26 25 24 24 22 21 22 24 27 30 31 32 33 34 35 35
3 4 4 5 5 5 6 5 5 5 5 5 6 6 6 6 7 6 7 8 8 8 11 13 12 10 9 9 10 10 10 10 10 11 11 11 11 13 14 15 16 17 18 19 20 20 21 21 22 23 23 24 23 23 23 23 23 23 24 25 26 26 27 28 28 28 28 28 26 25 24 23 22 19 19 22 23 25 29 30 32 33 32 33 33
3 4 4 5 5 5 5 5 5 5 5 5 6 6 6 6 7 6 6 7 9 10 11 12 11 10 10 10 11 10 10 11 11 10 11 11 12 13 15 15 16 17 18 19 20 20 21 22 23 24 25 25 25 25 25 24 23 23 23 24 26 26 27 28 28 29 29 28 25 23 22 22 20 17 18 21 23 25 29 30 31 32 31 32 32
4 4 5 5 5 5 5 5 6 6 5 6 6 6 6 6 6 7 7 8 9 12 12 11 10 10 11 10 10 11 11 11 10 10 11 11 12 14 14 15 16 17 18 19 20 21 22 23 24 25 26 27 27 27 27 26 25 24 23 23 24 26 28 28 28 28 28 26 24 23 22 20 18 18 19 22 24 26 29 30 31 31 32 32 32
4 5 5 6 6 6 6 6 6 6 6 6 6 7 7 7 7 7 9 10 12 14 14 12 11 11 10 9 9 10 11 11 10 10 11 12 13 13 13 14 15 17 18 19 20 22 23 24 25 26 27 27 28 28 29 28 28 27 26 25 25 24 25 27 26 26 27 26 25 24 22 21 18 19 21 22 25 27 29 30 30 30 31 32 32
4 5 5 6 6 6 6 6 6 6 6 6 6 6 7 7 7 8 9 11 12 14 14 13 12 9 7 8 9 9 11 11 11 12 12 12 13 12 12 14 15 16 17 19 21 22 23 25 26 26 27 27 28 29 29 30 30 30 29 30 29 27 27 27 25 24 25 25 24 23 21 20 19 19 22 24 26 27 28 28 29 31 32 31 32
3 4 4 5 6 6 6 5 5 5 5 5 5 5 6 6 7 8 9 11 11 12 13 10 8 6 6 8 9 9 10 11 11 11 11 11 12 11 13 15 15 17 18 20 22 23 24 26 26 27 28 28 28 29 30 31 32 32 32 32 32 31 31 30 27 25 25 23 21 20 19 18 18 18 20 23 26 27 27 28 29 31 32 31 32
3 4 4 6 6 6 5 5 5 4 4 4 4 4 5 6 6 7 8 10 11 11 10 7 5 6 7 8 9 10 11 11 10 10 11 11 11 12 14 15 16 18 19 21 22 24 25 26 27 28 28 28 28 29 30 31 32 33 34 34 34 34 34 32 27 24 23 22 18 16 16 16 17 19 20 23 25 26 26 27 28 30 30 30 32
4 5 6 7 7 6 5 5 4 4 4 4 5 5 5 5 5 6 7 9 10 10 10 9 8 7 8 9 10 11 11 10 10 10 11 11 11 13 14 15 17 18 20 22 23 24 25 27 27 27 28 28 28 29 29 30 31 32 33 33 34 35 35 33 30 25 21 19 16 14 14 15 16 19 22 23 24 24 25 26 27 28 30 31 33
6 6 7 8 7 7 6 6 5 5 5 5 5 5 5 6 6 7 8 9 10 12 11 9 8 7 8 9 10 10 9 9 10 10 10 11 12 13 14 16 18 20 22 23 24 25 26 27 27 28 28 28 28 29 29 30 31 32 32 32 32 33 33 32 32 30 25 20 16 15 15 16 17 19 21 23 23 23 24 25 26 28 30 31 33
7 7 8 8 8 8 7 6 6 6 6 6 6 6 6 7 7 8 9 9 11 12 11 9 8 7 7 8 8 8 9 9 10 10 10 11 12 14 15 17 19 21 22 24 25 26 27 27 28 29 29 29 29 29 30 31 32 32 32 32 31 31 30 29 29 30 31 27 22 17 15 15 16 20 21 21 22 23 23 25 27 30 31 31 33
7 7 8 8 9 9 8 7 8 7 7 7 7 7 7 8 8 9 9 10 11 11 11 9 8 7 7 8 8 9 9 10 10 10 11 12 13 14 16 18 20 22 23 25 26 27 27 28 29 30 30 30 30 30 30 32 33 33 32 31 31 30 28 27 26 27 29 30 27 23 21 17 16 20 22 19 20 21 23 25 27 30 31 32 34
7 7 8 9 10 10 10 10 9 8 8 7 8 8 8 8 9 9 9 10 10 11 11 10 9 8 8 8 8 8 9 9 10 11 12 13 14 16 18 19 21 22 24 25 26 27 28 29 29 29 29 30 30 30 30 31 32 32 32 32 33 31 28 26 26 27 27 28 28 26 26 23 20 22 21 18 19 21 22 24 27 30 31 33 35
7 7 8 8 9 10 11 11 10 10 10 9 9 9 8 9 9 9 9 10 10 11 11 11 10 9 8 8 9 9 9 9 10 12 13 14 16 17 19 20 22 23 25 26 27 28 28 29 29 29 29 29 29 30 30 31 32 32 32 32 32 31 29 28 26 27 27 27 28 27 26 24 22 23 21 17 17 19 20 22 26 29 31 34 35
Wind_Direction
250 253 258 267 273 274 277 290 299 303 299 297 297 296 299 297 298 300 303 304 301 302 302 305 308 308 312 314 316 316 316 316 317 317 315 312 311 310 310 311 311 310 310 309 309 308 306 305 304 303 303 303 302 303 303 301 299 299 300 300 299 298 297 297 297 296 292 288 288 288 287 285 284 282 281 281 281 282 283 282 278 275 274 273 272
247 255 260 264 263 266 278 293 298 299 294 294 293 291 288 287 293 296 302 302 302 304 304 310 309 309 310 311 314 316 317 317 316 313 312 311 310 310 310 311 310 310 311 311 310 308 307 307 305 305 306 305 305 305 304 301 302 304 304 303 301 301 301 301 300 296 292 292 292 291 290 288 287 285 283 283 285 286 284 280 278 277 278 277 275
244 254 252 254 256 266 280 290 292 294 296 297 291 284 283 291 297 300 304 303 306 307 311 315 308 306 307 313 317 319 318 315 312 311 312 311 312 311 312 313 313 314 314 313 311 310 310 308 307 307 306 306 306 305 306 305 307 307 304 304 303 303 304 304 300 297 297 297 296 295 294 292 290 288 287 288 290 289 285 282 281 279 279 279 278
238 250 254 253 256 264 270 279 283 295 310 316 311 299 304 305 304 309 312 313 328 322 325 317 311 315 316 321 322 322 318 314 312 312 313 313 313 313 316 318 318 319 317 316 314 314 312 311 311 310 309 310 309 309 310 309 309 307 307 306 306 307 307 305 301 302 302 300 301 299 297 297 294 291 293 295 295 293 290 287 285 282 280 278 278
242 245 251 246 247 255 248 258 271 304 334 349 353 338 316 309 312 322 331 344 345 329 332 327 327 328 327 328 324 322 316 315 314 314 315 316 317 317 321 321 321 321 320 318 318 318 316 316 316 316 315 314 313 313 312 310 311 309 310 310 310 310 308 306 304 306 304 304 303 300 299 298 295 295 298 300 299 296 292 289 287 286 284 281 279
248 230 229 228 227 230 228 238 241 278 326 351 351 332 316 318 345 352 358 351 340 339 343 342 341 337 333 330 323 321 318 318 317 318 318 318 319 320 321 321 322 323 322 321 321 321 319 319 319 319 318 318 318 316 315 313 313 312 312 313 312 311 309 307 307 307 305 305 302 301 299 298 297 296 298 301 299 296 292 289 288 286 284 282 280
225 213 212 200 199 209 208 207 215 281 329 351 347 338 342 21 43 22 1 350 358 357 351 348 344 340 337 332 326 324 324 325 323 323 322 320 320 321 323 322 324 324 323 322 322 322 321 322 322 323 322 323 322 320 318 317 317 315 315 315 314 314 313 311 309 308 306 304 302 301 300 302 300 296 300 303 298 296 292 290 288 286 284 282 280
191 191 203 189 193 197 187 192 223 309 348 5 27 30 36 49 48 28 9 10 9 358 351 349 346 346 343 339 336 336 336 334 330 328 325 322 323 323 324 324 325 323 323 322 322 324 324 326 326 326 325 325 324 323 321 320 321 319 320 320 320 318 317 315 311 310 308 308 305 303 305 306 302 302 309 306 300 298 295 293 291 288 286 284 282
183 173 182 186 188 179 184 196 246 334 17 47 68 60 54 51 42 31 20 17 10 359 357 353 352 353 350 348 347 348 345 338 332 328 325 323 322 323 323 324 324 323 323 323 326 327 328 329 329 328 327 327 326 325 324 324 324 323 325 323 323 319 319 317 313 313 312 312 309 308 311 309 308 310 313 308 305 303 300 298 294 292 289 287 284
189 170 163 168 170 170 185 203 242 14 65 77 74 64 59 51 40 33 22 15 10 7 5 1 0 360 357 354 354 353 344 335 331 326 325 324 323 324 325 325 325 326 326 327 329 330 332 331 330 329 328 329 329 328 327 326 326 326 326 323 322 318 318 317 314 314 314 314 311 313 313 312 316 316 313 312 311 306 303 300 298 296 294 291 288
184 168 146 150 155 162 181 203 189 123 108 91 80 70 60 52 43 29 17 11 10 9 5 7 7 5 3 358 355 351 341 335 331 328 328 328 326 326 327 327 328 330 331 332 332 333 334 332 331 330 331 331 331 330 328 328 327 326 324 322 319 317 317 316 313 312 312 311 311 314 313 314 319 316 313 312 309 306 304 302 301 299 298 297 294
161 149 140 146 151 165 181 180 147 122 109 91 78 65 57 47 39 25 12 8 9 7 5 8 8 7 4 359 355 350 343 338 335 333 332 331 329 329 330 331 333 334 334 335 335 335 334 333 332 332 332 332 331 329 328 327 325 324 322 320 318 318 318 315 312 311 310 310 312 314 311 315 318 315 314 311 308 307 305 303 302 300 300 300 299
140 138 141 151 157 166 160 145 135 124 107 81 62 54 47 39 29 19 10 6 6 6 7 8 7 5 3 359 356 353 347 343 340 336 334 332 332 333 335 335 337 337 337 336 336 336 334 333 332 333 333 331 330 328 327 325 323 322 321 320 320 320 318 315 314 314 313 313 316 313 310 317 318 315 315 315 315 314 311 306 303 301 300 299 299
131 134 145 154 153 151 141 140 138 121 100 79 66 54 41 32 19 11 6 4 7 6 8 7 5 4 1 360 357 355 350 346 341 335 332 331 333 335 336 337 338 339 337 336 336 335 333 333 333 334 332 330 328 327 325 322 322 322 321 322 322 320 318 316 316 317 316 316 318 312 311 320 319 316 319 321 323 320 317 313 307 303 300 299 299
127 135 148 149 143 144 139 135 127 116 102 84 67 54 40 27 9 2 2 3 5 5 6 5 2 1 359 358 357 354 349 344 338 332 330 330 333 336 337 338 339 339 338 337 337 335 334 334 334 332 330 328 327 324 321 320 321 321 321 323 322 320 319 318 318 318 317 317 317 313 316 322 320 320 323 324 322 319 320 319 315 310 305 301 299
129 136 145 143 140 142 133 128 124 119 101 77 58 45 29 13 0 356 359 0 1 1 2 1 359 358 357 357 355 352 346 341 335 330 329 330 334 336 338 338 339 341 340 339 337 334 333 332 332 330 328 327 324 321 319 320 321 320 322 324 322 322 323 321 318 318 317 317 315 316 321 322 320 322 321 319 316 317 319 319 319 317 313 308 303
131 137 141 136 133 133 128 130 127 119 99 74 48 25 9 353 351 352 354 354 354 356 357 357 356 355 355 355 353 349 344 339 333 328 326 329 334 336 339 339 340 341 340 339 335 331 330 329 329 328 327 325 322 318 318 319 319 319 321 323 323 324 324 322 320 319 316 315 315 320 322 317 318 318 317 316 315 316 316 317 317 317 317 314 311
133 135 134 130 126 129 127 128 125 120 105 75 29 356 346 337 343 346 347 349 351 352 353 354 354 353 353 352 349 346 342 337 329 325 326 330 335 338 339 338 340 340 339 336 331 328 327 326 326 326 326 324 320 317 316 317 317 319 320 321 322 323 324 324 323 319 316 316 317 321 320 314 316 316 316 316 315 314 313 314 313 314 314 314 313
136 134 132 133 131 132 130 126 125 124 318 351 346 333 326 328 337 342 343 346 349 347 348 350 349 350 350 347 346 345 342 336 329 328 329 332 336 338 337 337 339 339 336 332 327 326 325 325 325 325 325 322 319 316 315 316 318 317 317 320 321 322 324 325 322 319 320 321 320 321 318 314 316 316 316 316 314 314 313 312 312 312 311 310 311
137 138 140 139 136 135 124 97 52 307 288 307 329 325 319 324 335 342 341 341 343 341 342 346 345 346 345 344 345 344 339 334 331 330 330 332 335 337 337 337 337 336 332 328 324 323 324 325 324 324 324 321 319 316 315 316 315 311 315 319 320 322 323 322 322 324 325 322 320 321 319 316 317 317 317 315 314 315 314 314 313 312 311 309 308
151 146 146 142 135 135 112 67 341 302 297 314 326 323 324 331 337 337 336 338 340 338 341 343 342 342 340 342 343 340 337 335 334 331 330 332 334 336 336 336 334 333 331 328 325 324 326 326 325 324 323 322 321 318 314 312 311 311 316 319 319 321 321 322 325 326 324 321 320 321 319 318 318 317 317 316 316 316 315 315 314 314 313 310 307
155 150 146 143 132 148 148 264 280 297 303 316 324 323 327 332 332 332 335 338 337 336 338 338 337 337 335 340 339 338 338 337 335 333 332 333 333 334 333 332 333 332 330 328 326 324 326 326 325 323 322 323 321 316 311 311 314 318 318 318 319 320 321 325 326 325 324 322 322 321 319 318 318 317 317 316 316 317 316 316 316 316 315 312 311
168 157 143 139 132 197 266 279 283 304 314 322 325 323 328 333 333 336 339 337 337 336 334 335 338 337 336 340 338 339 341 338 336 335 336 335 331 330 330 331 332 331 327 326 323 323 325 325 324 323 323 323 322 319 317 318 319 319 318 319 320 321 324 326 325 325 324 323 322 322 320 318 319 319 318 316 316 316 316 317 318 318 316 315 314
190 156 129 132 143 269 284 291 300 317 321 322 322 327 333 338 339 341 342 338 338 335 332 336 339 337 336 339 339 341 342 339 338 336 335 332 326 325 329 332 332 330 328 327 327 329 329 326 324 323 324 325 326 323 321 320 319 320 321 322 323 325 326 325 325 324 323 322 321 321 319 318 319 319 318 316 316 316 315 316 317 317 316 316 315
187 160 124 109 305 306 309 308 315 321 322 324 328 336 339 340 341 340 339 334 334 332 334 338 338 337 338 339 339 341 341 340 340 337 335 334 332 332 334 336 336 335 334 334 334 335 332 329 328 326 326 327 326 322 319 319 319 319 320 321 322 323 323 323 323 322 322 320 319 319 318 318 318 318 317 316 316 315 315 315 315 315 315 316 316
187 232 299 324 314 314 314 312 319 322 327 334 337 341 341 341 339 335 332 329 331 333 335 339 339 339 340 339 338 339 340 340 340 336 336 337 337 338 339 340 339 337 336 336 336 335 332 330 329 327 326 325 323 321 320 319 318 318 318 319 320 320 321 322 322 322 320 318 319 318 317 318 319 318 317 315 315 314 313 314 314 314 314 315 317
224 283 316 320 314 313 314 316 324 331 338 341 340 341 339 338 335 331 329 328 331 334 337 340 341 339 338 338 337 338 339 339 339 336 337 338 339 340 341 341 338 336 336 335 336 335 332 330 329 327 325 324 323 322 321 320 319 318 318 319 320 320 321 322 321 321 320 319 320 319 317 320 321 320 320 317 316 314 314 315 314 315 316 318 320
264 290 308 312 312 312 315 324 331 338 344 341 337 338 339 336 331 329 327 328 332 333 338 340 339 338 337 338 337 339 340 339 339 337 338 339 342 343 343 342 337 337 337 336 337 336 333 333 331 327 326 325 324 323 322 320 319 319 319 320 320 320 321 321 320 320 320 321 321 319 320 321 322 321 320 318 318 317 317 317 315 315 318 319 322
286 295 302 306 309 312 320 328 334 339 340 337 335 336 337 332 327 327 326 330 333 332 337 339 337 337 337 337 338 341 341 341 340 338 340 341 343 345 344 342 338 339 340 338 339 339 337 335 331 328 328 327 324 323 321 320 320 320 320 321 321 321 321 320 319 320 321 322 320 319 321 321 320 319 319 319 319 318 319 320 318 318 320 320 321
294 296 300 306 310 315 324 328 332 336 333 333 333 333 333 328 324 326 329 333 333 331 334 335 334 337 339 339 339 340 339 341 341 339 342 343 345 346 344 343 343 344 345 344 342 341 340 335 329 328 329 327 323 322 322 321 322 322 322 323 322 322 322 321 320 321 322 322 320 320 321 320 319 320 321 322 321 321 321 323 323 321 322 322 322
296 298 303 308 313 318 322 323 327 329 329 329 329 331 330 326 326 327 331 334 331 329 332 335 337 341 342 339 338 338 339 340 343 344 345 346 346 346 346 350 352 351 350 348 345 342 339 333 330 330 329 326 323 324 326 325 324 325 326 325 323 324 324 324 322 323 323 320 320 321 321 321 321 322 323 324 323 323 323 324 323 322 322 322 322
298 300 306 309 312 314 315 318 323 325 325 327 327 330 330 327 327 327 330 332 329 328 333 337 341 342 340 337 338 340 341 343 348 348 347 348 348 349 354 358 358 354 352 350 346 342 338 335 335 334 331 330 329 330 331 330 328 329 329 327 326 327 327 326 323 324 324 321 321 323 323 323 323 323 324 325 324 324 324 323 322 322 322 321 320
301 301 303 305 306 309 313 316 319 320 321 325 326 329 329 325 325 325 326 329 329 329 333 338 341 342 343 340 340 345 348 350 352 349 349 349 349 359 4 1 0 356 354 353 350 347 346 344 344 341 337 336 336 336 335 334 332 331 331 330 330 328 328 327 327 326 325 323 323 325 327 325 324 324 325 325 325 325 325 322 323 323 321 319 318
300 301 302 303 305 308 312 313 314 316 319 323 324 327 325 321 324 326 326 328 329 332 336 340 342 344 347 346 347 354 354 354 355 351 351 352 356 8 9 2 1 359 356 357 357 356 356 355 353 350 346 344 343 341 339 336 335 333 333 333 331 329 329 329 328 326 325 326 327 329 329 327 325 325 325 326 325 326 325 322 322 321 318 316 315
301 304 304 303 306 306 306 308 308 312 320 321 321 324 321 319 324 326 327 328 332 338 340 344 346 345 347 351 358 2 358 355 356 354 354 359 5 10 9 5 2 359 358 1 2 1 2 2 2 359 355 352 349 346 343 339 337 336 335 334 331 330 332 331 329 327 327 330 332 332 330 329 328 324 325 328 326 326 325 322 320 318 316 316 315
303 306 305 303 304 300 298 300 303 311 318 318 320 319 319 321 323 327 331 331 336 339 342 350 350 346 348 354 4 3 358 358 357 358 1 4 10 10 7 6 1 359 1 3 3 3 5 5 4 3 359 356 353 350 345 341 339 338 335 333 332 333 335 334 331 329 331 333 335 334 332 331 327 322 326 328 326 325 323 320 318 316 316 316 316
307 306 304 299 295 291 291 295 301 311 314 316 320 317 318 321 322 330 330 332 343 342 345 352 349 349 352 357 6 2 358 2 1 4 7 9 12 10 7 4 1 1 2 3 4 5 6 5 4 3 0 358 355 353 349 345 343 341 338 336 337 338 338 336 334 334 336 338 338 335 332 329 324 323 328 329 326 323 320 317 316 317 317 317 317
317 308 299 290 288 288 292 300 303 309 313 316 318 315 318 321 325 334 332 337 348 347 348 351 350 356 358 359 8 4 1 5 6 9 14 17 15 9 6 4 1 2 3 4 5 5 5 4 4 3 2 1 359 356 354 352 350 345 342 341 341 340 338 338 340 341 339 339 337 333 330 325 324 328 330 326 324 321 318 317 317 318 319 319 319
323 310 302 294 297 300 304 309 308 312 316 315 316 319 324 327 332 335 335 339 345 353 354 350 354 2 1 4 11 7 4 8 11 14 19 20 14 10 7 5 3 3 4 6 6 6 6 6 6 5 4 3 0 359 359 357 354 349 346 344 343 342 339 342 344 342 339 337 336 333 330 328 329 331 327 322 321 320 319 318 318 320 321 322 322
325 319 318 314 317 319 320 317 316 319 317 319 323 328 331 330 331 332 339 344 347 357 360 355 358 4 6 8 8 3 4 12 15 16 20 17 13 12 9 6 6 6 7 10 10 11 11 10 8 7 5 3 1 0 1 360 356 354 352 347 346 344 343 346 345 339 337 337 335 334 333 332 333 332 325 321 321 322 323 322 321 321 322 323 324
332 330 328 329 330 330 330 325 324 324 320 326 329 329 332 330 334 341 346 354 356 356 359 3 7 9 9 7 4 2 6 15 17 17 17 13 15 15 9 8 9 10 12 14 14 14 13 12 10 8 7 3 0 0 359 358 356 356 355 352 351 349 346 348 346 339 337 337 336 337 338 338 338 334 329 325 323 323 326 328 328 326 325 324 325
342 338 333 330 332 331 333 330 328 327 325 330 330 330 334 336 343 348 348 356 1 355 355 6 14 13 8 3 2 5 13 16 15 18 15 12 18 16 11 13 14 16 16 15 15 14 12 10 8 8 6 2 360 360 358 355 356 356 354 354 356 353 350 351 349 341 338 340 341 343 343 343 342 336 330 327 326 327 330 331 332 331 329 327 328
348 342 338 333 335 335 337 334 330 330 328 331 331 331 337 342 347 350 352 358 0 353 354 4 8 6 4 3 5 11 18 15 11 16 12 12 20 17 16 19 18 18 14 13 14 11 9 8 5 5 4 1 359 358 357 355 355 356 354 354 355 354 352 355 354 348 345 346 343 344 346 344 341 335 330 328 329 332 334 335 335 335 333 331 333
355 349 342 339 342 341 340 338 334 332 329 328 332 336 340 345 348 350 351 353 356 354 356 2 354 351 6 7 10 16 19 15 11 12 11 16 21 17 19 19 14 13 10 10 11 7 5 5 3 2 1 359 357 357 357 355 354 355 355 354 354 353 353 356 0 357 350 348 344 344 346 341 337 332 327 328 333 336 337 338 337 337 337 337 338
7 360 351 346 346 344 343 344 343 339 336 333 338 343 342 341 344 350 349 348 352 352 354 358 352 360 12 8 10 16 16 14 9 10 15 19 19 17 18 14 8 7 6 6 6 4 2 1 1 360 358 356 356 356 356 356 355 355 356 355 354 354 353 355 3 4 353 348 348 347 342 338 335 331 329 332 336 338 339 339 339 340 341 342 341
19 6 357 354 352 353 354 355 358 354 349 345 342 344 341 340 342 346 347 343 346 352 355 1 5 7 8 7 10 11 10 8 6 11 18 16 15 14 12 8 3 1 2 2 1 360 359 359 358 357 356 355 354 355 355 355 356 356 356 357 355 354 353 353 357 4 2 355 354 353 347 343 341 336 334 336 337 339 341 342 343 345 345 345 345
23 11 1 2 4 7 9 10 13 10 0 355 349 348 344 343 343 341 344 345 350 356 357 359 4 3 3 5 9 8 5 3 6 12 14 10 11 9 4 1 357 356 358 357 356 356 355 355 354 354 354 353 353 353 353 355 356 357 357 357 357 355 354 354 353 356 1 5 5 0 355 352 348 342 337 337 338 340 345 347 348 350 348 349 349
21 15 8 13 18 19 21 20 21 19 11 4 356 353 349 346 344 341 343 348 354 355 353 354 357 356 355 359 2 4 4 4 8 10 6 4 4 0 356 355 352 353 354 352 352 352 352 352 351 352 352 351 352 353 353 355 356 357 357 357 357 357 356 356 354 353 355 1 8 7 2 1 356 346 342 343 341 341 348 351 354 354 352 351 351
21 20 20 24 26 27 28 25 24 23 17 11 3 357 352 348 344 341 342 346 352 353 352 352 352 348 346 351 356 358 2 4 3 1 357 356 356 351 349 349 349 350 349 348 348 348 348 349 349 350 349 349 351 352 354 355 355 356 356 356 357 359 358 355 355 357 355 356 1 3 3 10 11 354 346 349 345 342 350 353 356 356 352 352 352
23 27 32 32 32 33 33 32 30 26 22 16 9 2 354 350 345 341 343 345 350 353 352 351 348 346 344 344 348 351 355 356 352 350 348 347 346 343 343 345 346 345 344 344 345 344 344 345 346 346 346 349 350 351 353 353 354 355 355 356 357 359 358 355 356 359 359 357 357 360 1 4 9 357 348 355 352 346 352 355 357 355 351 355 356
25 30 36 37 36 35 35 36 35 32 29 24 17 9 358 352 348 345 345 345 349 353 353 352 348 345 342 339 342 344 345 344 342 340 339 340 339 338 339 341 340 340 340 341 340 340 340 340 341 342 343 347 349 350 351 351 352 355 356 356 357 357 357 356 359 359 358 358 357 358 359 0 5 358 351 1 358 349 355 358 357 355 355 358 359
Height
3119 3120 3121 3121 3121 3122 3122 3122 3121 3121 3121 3120 3119 3119 3119 3118 3118 3117 3116 3116 3115 3115 3114 3113 3113 3112 3112 3112 3111 3111 3110 3110 3109 3109 3109 3108 3108 3107 3107 3106 3105 3105 3105 3104 3104 3104 3103 3102 3102 3101 3101 3100 3100 3100 3099 3099 3098 3098 3097 3097 3096 3096 3096 3095 3095 3095 3094 3093 3093 3092 3092 3091 3090 3089 3089 3089 3089 3090 3090 3089 3088 3086 3086 3086 3086
3119 3120 3121 3121 3121 3121 3121 3121 3121 3120 3120 3119 3119 3118 3118 3118 3117 3116 3116 3116 3115 3114 3114 3113 3113 3112 3112 3111 3111 3110 3110 3109 3109 3108 3108 3107 3107 3106 3106 3105 3105 3104 3104 3103 3103 3102 3102 3101 3101 3100 3100 3099 3099 3098 3098 3097 3097 3097 3096 3096 3095 3095 3094 3094 3094 3093 3092 3092 3091 3091 3090 3089 3088 3087 3087 3087 3087 3088 3087 3086 3085 3084 3084 3083 3083
3119 3120 3120 3120 3120 3121 3121 3120 3120 3119 3119 3118 3118 3118 3117 3117 3116 3116 3116 3115 3114 3114 3113 3113 3112 3112 3112 3111 3111 3110 3109 3109 3108 3107 3107 3106 3106 3105 3105 3104 3104 3103 3103 3102 3102 3101 3101 3100 3100 3100 3099 3099 3098 3098 3097 3096 3096 3096 3095 3095 3094 3094 3093 3093 3092 3091 3091 3090 3090 3089 3088 3087 3086 3084 3085 3085 3086 3086 3085 3084 3083 3082 3082 3081 3080
3119 3119 3119 3119 3120 3120 3120 3120 3119 3119 3118 3118 3117 3117 3117 3116 3116 3115 3115 3114 3114 3113 3113 3113 3112 3112 3112 3111 3110 3109 3109 3108 3107 3106 3106 3105 3105 3104 3104 3103 3103 3102 3102 3101 3101 3101 3100 3099 3099 3099 3098 3098 3097 3097 3096 3096 3095 3095 3094 3094 3093 3093 3092 3091 3090 3090 3089 3088 3088 3087 3086 3085 3083 3082 3082 3083 3084 3083 3082 3081 3080 3080 3079 3079 3078
3119 3119 3118 3118 3119 3120 3119 3119 3119 3118 3118 3117 3117 3116 3116 3115 3115 3115 3114 3114 3114 3113 3113 3112 3112 3112 3111 3111 3110 3109 3108 3107 3107 3106 3105 3105 3104 3103 3103 3102 3102 3101 3101 3100 3100 3099 3099 3098 3098 3098 3098 3097 3097 3096 3096 3095 3095 3094 3093 3093 3092 3092 3091 3090 3089 3088 3088 3087 3086 3085 3084 3083 3081 3079 3080 3081 3081 3080 3079 3078 3077 3076 3076 3075 3075
3118 3118 3118 3119 3119 3119 3119 3118 3118 3118 3117 3117 3116 3116 3115 3115 3115 3114 3114 3114 3113 3113 3112 3112 3112 3111 3111 3110 3109 3109 3108 3107 3106 3106 3105 3104 3104 3103 3103 3102 3101 3101 3100 3100 3099 3099 3098 3098 3097 3097 3097 3096 3096 3096 3095 3094 3094 3093 3093 3092 3091 3091 3090 3089 3088 3087 3086 3085 3084 3083 3082 3081 3079 3077 3078 3079 3078 3077 3075 3074 3074 3073 3072 3072 3071
3117 3117 3118 3119 3118 3118 3118 3118 3117 3117 3117 3116 3116 3116 3115 3115 3115 3114 3114 3113 3113 3113 3112 3112 3111 3111 3110 3110 3109 3108 3107 3107 3106 3105 3105 3104 3104 3103 3102 3101 3101 3100 3100 3099 3099 3098 3098 3097 3097 3096 3096 3095 3095 3094 3094 3093 3093 3092 3091 3091 3090 3089 3088 3087 3086 3085 3085 3084 3082 3082 3080 3080 3077 3074 3077 3077 3074 3074 3072 3071 3070 3069 3069 3068 3067
3118 3117 3117 3117 3117 3117 3117 3117 3117 3117 3116 3116 3116 3115 3115 3115 3114 3114 3114 3113 3113 3113 3112 3112 3111 3111 3110 3109 3109 3108 3107 3106 3106 3105 3105 3104 3103 3102 3102 3101 3100 3100 3099 3099 3098 3098 3097 3097 3096 3096 3095 3095 3094 3093 3093 3092 3091 3090 3090 3089 3088 3087 3087 3085 3084 3083 3082 3082 3080 3080 3078 3078 3075 3072 3074 3074 3072 3071 3069 3068 3067 3066 3065 3064 3063
3117 3117 3116 3116 3116 3116 3117 3116 3116 3116 3116 3115 3115 3115 3115 3115 3114 3114 3114 3113 3113 3113 3112 3112 3111 3110 3110 3109 3108 3107 3107 3106 3106 3105 3105 3104 3103 3102 3101 3101 3100 3100 3099 3098 3098 3097 3097 3096 3096 3095 3095 3094 3093 3092 3091 3091 3090 3089 3088 3087 3087 3086 3085 3084 3082 3081 3080 3079 3078 3077 3076 3075 3073 3071 3070 3069 3069 3067 3066 3065 3064 3063 3062 3061 3060
3115 3115 3115 3116 3116 3116 3116 3116 3116 3115 3115 3115 3115 3115 3115 3115 3114 3114 3114 3113 3113 3113 3112 3112 3111 3110 3109 3108 3108 3107 3107 3106 3106 3105 3104 3104 3103 3102 3101 3101 3100 3099 3099 3098 3097 3097 3096 3096 3095 3095 3094 3093 3092 3091 3090 3089 3089 3088 3087 3086 3085 3084 3084 3083 3081 3080 3079 3078 3076 3075 3074 3073 3072 3069 3067 3066 3065 3064 3063 3062 3061 3059 3059 3057 3056
3114 3114 3115 3115 3115 3115 3115 3115 3115 3115 3115 3115 3115 3115 3115 3115 3114 3114 3114 3113 3113 3112 3112 3111 3111 3110 3109 3108 3108 3107 3107 3106 3106 3105 3104 3103 3103 3102 3101 3100 3100 3099 3098 3098 3097 3096 3096 3095 3094 3094 3093 3092 3091 3090 3089 3089 3088 3087 3086 3085 3084 3083 3083 3082 3080 3079 3078 3076 3075 3074 3072 3071 3070 3068 3066 3065 3063 3062 3061 3059 3058 3057 3055 3054 3053
3113 3114 3114 3114 3114 3115 3115 3115 3115 3115 3115 3115 3115 3115 3115 3114 3114 3114 3114 3113 3113 3112 3112 3111 3110 3109 3109 3108 3108 3107 3107 3106 3105 3104 3103 3103 3102 3102 3101 3100 3099 3099 3098 3097 3097 3096 3095 3095 3094 3093 3092 3091 3091 3090 3089 3088 3087 3086 3085 3085 3084 3083 3081 3080 3079 3078 3077 3075 3074 3073 3071 3070 3069 3067 3065 3063 3062 3060 3059 3057 3056 3054 3053 3052 3050
3113 3113 3114 3114 3114 3114 3115 3115 3115 3115 3115 3115 3115 3115 3115 3114 3114 3114 3113 3113 3113 3112 3111 3111 3110 3109 3109 3108 3108 3107 3106 3105 3104 3104 3103 3102 3102 3101 3101 3100 3099 3098 3098 3097 3096 3096 3095 3094 3093 3092 3092 3091 3090 3089 3088 3087 3086 3085 3085 3084 3083 3082 3080 3079 3078 3077 3075 3074 3073 3071 3070 3069 3067 3066 3064 3062 3060 3058 3057 3055 3054 3052 3051 3049 3048
3113 3113 3113 3114 3114 3114 3114 3115 3115 3115 3115 3115 3115 3115 3115 3114 3114 3114 3114 3113 3113 3112 3111 3110 3110 3109 3109 3108 3107 3106 3105 3105 3104 3103 3103 3102 3102 3101 3100 3099 3099 3098 3097 3096 3096 3095 3094 3093 3093 3092 3091 3090 3090 3089 3088 3087 3086 3085 3084 3083 3082 3081 3080 3078 3077 3075 3074 3072 3071 3069 3068 3068 3066 3064 3062 3060 3058 3057 3055 3054 3052 3050 3049 3048 3046
3113 3113 3113 3114 3114 3114 3114 3115 3115 3115 3115 3115 3115 3115 3115 3115 3114 3114 3114 3113 3113 3112 3111 3110 3110 3109 3108 3108 3107 3106 3105 3104 3104 3103 3102 3102 3101 3100 3100 3099 3098 3097 3096 3096 3095 3094 3094 3093 3092 3091 3091 3090 3089 3088 3087 3086 3085 3084 3083 3082 3081 3080 3079 3077 3076 3074 3072 3071 3070 3068 3066 3065 3064 3062 3060 3058 3057 3055 3054 3052 3050 3049 3047 3046 3044
3113 3113 3113 3113 3114 3114 3115 3115 3115 3115 3115 3115 3115 3115 3115 3115 3114 3114 3114 3113 3112 3112 3111 3110 3110 3109 3108 3107 3106 3106 3105 3104 3103 3103 3102 3101 3101 3100 3099 3098 3097 3097 3096 3095 3094 3094 3093 3092 3091 3091 3090 3089 3088 3087 3086 3085 3084 3083 3082 3081 3079 3078 3077 3076 3074 3073 3071 3070 3069 3067 3065 3063 3061 3060 3058 3057 3056 3054 3052 3050 3048 3047 3045 3044 3042
3113 3113 3113 3114 3114 3114 3115 3115 3115 3115 3115 3115 3115 3115 3115 3115 3114 3114 3114 3113 3112 3112 3111 3110 3110 3109 3108 3107 3106 3105 3104 3103 3103 3102 3101 3101 3100 3099 3098 3097 3096 3096 3095 3094 3094 3093 3092 3091 3091 3090 3089 3088 3087 3086 3085 3084 3083 3082 3081 3080 3078 3077 3076 3075 3073 3072 3070 3069 3067 3066 3064 3062 3060 3059 3057 3056 3054 3052 3050 3049 3047 3045 3043 3041 3040
3113 3114 3114 3114 3114 3114 3115 3115 3115 3115 3115 3115 3115 3115 3115 3114 3114 3114 3113 3113 3112 3111 3111 3110 3109 3108 3107 3106 3105 3105 3104 3103 3102 3101 3101 3100 3099 3098 3097 3097 3096 3095 3094 3094 3093 3092 3092 3091 3090 3089 3088 3087 3086 3085 3084 3083 3082 3081 3080 3078 3077 3076 3074 3073 3072 3070 3069 3068 3066 3065 3063 3061 3060 3058 3056 3054 3052 3051 3049 3047 3045 3043 3041 3039 3038
3114 3114 3114 3114 3114 3114 3115 3115 3115 3116 3116 3115 3115 3115 3115 3114 3114 3114 3113 3112 3112 3111 3110 3109 3108 3108 3107 3106 3105 3104 3103 3102 3101 3100 3100 3099 3098 3097 3097 3096 3095 3094 3094 3093 3092 3092 3091 3090 3089 3088 3087 3086 3085 3084 3083 3082 3081 3079 3078 3077 3075 3074 3073 3072 3070 3069 3067 3066 3064 3063 3062 3060 3058 3056 3054 3053 3051 3049 3047 3045 3043 3041 3039 3038 3036
3114 3114 3114 3114 3114 3114 3115 3115 3116 3116 3116 3115 3115 3115 3115 3114 3114 3113 3113 3112 3112 3111 3110 3109 3108 3107 3106 3105 3104 3103 3102 3102 3100 3100 3099 3098 3097 3096 3096 3095 3094 3094 3093 3092 3092 3091 3090 3089 3088 3087 3086 3085 3084 3083 3082 3081 3080 3078 3077 3075 3074 3073 3071 3070 3068 3067 3065 3064 3063 3062 3060 3058 3056 3054 3053 3051 3049 3047 3045 3043 3041 3039 3037 3036 3034
3114 3114 3114 3114 3114 3115 3115 3115 3116 3116 3115 3115 3115 3115 3114 3114 3114 3113 3113 3112 3111 3110 3109 3108 3107 3107 3106 3105 3104 3103 3102 3101 3100 3099 3098 3097 3096 3096 3095 3094 3093 3093 3092 3091 3091 3090 3089 3088 3087 3086 3085 3084 3083 3082 3081 3080 3079 3077 3075 3074 3072 3071 3069 3068 3066 3065 3064 3062 3061 3060 3058 3056 3054 3052 3051 3049 3047 3045 3043 3041 3039 3037 3035 3034 3032
3113 3114 3114 3114 3115 3115 3115 3115 3115 3115 3115 3115 3115 3114 3114 3114 3114 3113 3112 3111 3111 3110 3109 3108 3107 3106 3105 3104 3103 3102 3101 3100 3099 3098 3097 3096 3095 3095 3094 3093 3092 3092 3091 3091 3090 3088 3088 3086 3085 3084 3083 3082 3081 3080 3080 3078 3077 3076 3074 3072 3071 3070 3068 3066 3064 3063 3061 3060 3058 3057 3056 3054 3052 3050 3048 3046 3044 3043 3041 3039 3037 3035 3033 3031 3029
3113 3114 3114 3114 3115 3115 3114 3115 3115 3115 3115 3114 3114 3114 3114 3114 3113 3112 3112 3111 3110 3109 3108 3107 3106 3105 3104 3103 3102 3101 3100 3099 3098 3097 3096 3095 3095 3094 3093 3093 3092 3091 3090 3090 3089 3088 3086 3085 3084 3083 3082 3081 3080 3079 3077 3076 3075 3073 3072 3070 3069 3067 3066 3064 3062 3060 3059 3057 3055 3054 3053 3052 3050 3048 3046 3044 3042 3040 3038 3036 3034 3032 3030 3028 3026
3114 3114 3114 3114 3115 3115 3115 3115 3115 3115 3115 3114 3114 3114 3113 3113 3112 3111 3110 3110 3109 3108 3107 3106 3105 3104 3103 3102 3101 3100 3099 3098 3097 3096 3095 3095 3094 3093 3093 3092 3091 3090 3090 3088 3087 3086 3085 3084 3083 3082 3081 3080 3078 3077 3076 3074 3072 3071 3069 3068 3066 3064 3063 3061 3060 3058 3057 3055 3053 3052 3051 3050 3048 3046 3044 3042 3040 3038 3036 3034 3032 3030 3027 3025 3023
3114 3115 3115 3115 3115 3115 3115 3115 3115 3115 3114 3114 3114 3113 3112 3112 3111 3110 3110 3109 3108 3107 3106 3105 3105 3104 3102 3101 3100 3099 3098 3097 3096 3095 3094 3094 3093 3092 3091 3090 3090 3089 3088 3087 3085 3084 3083 3082 3081 3080 3079 3078 3077 3075 3074 3073 3071 3069 3067 3066 3064 3063 3061 3060 3058 3057 3055 3054 3052 3050 3048 3047 3046 3044 3042 3040 3037 3035 3033 3031 3029 3027 3025 3022 3020
3114 3115 3115 3115 3115 3115 3115 3114 3115 3115 3114 3114 3113 3112 3112 3111 3110 3110 3109 3108 3107 3106 3106 3105 3104 3103 3101 3100 3099 3098 3097 3096 3095 3094 3094 3093 3092 3091 3090 3089 3088 3087 3086 3085 3084 3083 3082 3081 3080 3079 3078 3076 3075 3074 3073 3071 3070 3068 3066 3065 3063 3061 3060 3058 3057 3055 3054 3052 3050 3048 3046 3045 3044 3042 3040 3038 3036 3033 3031 3029 3027 3025 3022 3020 3018
3114 3115 3114 3115 3115 3115 3115 3114 3114 3114 3114 3113 3112 3112 3111 3110 3110 3109 3108 3107 3106 3106 3105 3104 3103 3102 3101 3100 3099 3098 3097 3096 3095 3094 3093 3092 3092 3091 3090 3089 3088 3087 3086 3085 3083 3082 3081 3080 3079 3078 3076 3075 3074 3072 3071 3070 3068 3067 3065 3063 3061 3060 3058 3056 3055 3053 3052 3050 3048 3047 3044 3042 3041 3039 3037 3036 3034 3031 3029 3026 3024 3022 3020 3017 3015
3114 3114 3114 3115 3115 3115 3114 3114 3114 3114 3113 3113 3112 3111 3111 3110 3109 3108 3107 3107 3106 3105 3104 3103 3102 3101 3100 3099 3098 3097 3096 3095 3095 3094 3093 3092 3091 3090 3089 3088 3087 3086 3085 3084 3082 3081 3080 3079 3078 3077 3075 3074 3072 3071 3070 3068 3067 3065 3063 3062 3060 3058 3057 3055 3053 3052 3050 3048 3046 3045 3043 3041 3039 3037 3035 3033 3031 3029 3027 3024 3021 3020 3018 3015 3013
3114 3114 3115 3115 3115 3114 3114 3114 3114 3113 3113 3112 3112 3111 3110 3110 3109 3108 3107 3106 3105 3104 3104 3103 3102 3101 3100 3099 3098 3097 3096 3095 3094 3093 3093 3092 3091 3090 3089 3088 3087 3085 3084 3083 3082 3081 3079 3078 3077 3075 3074 3072 3071 3070 3068 3067 3065 3063 3061 3060 3058 3057 3055 3053 3052 3050 3048 3046 3045 3043 3041 3039 3037 3035 3033 3031 3029 3026 3025 3022 3019 3018 3016 3014 3011
3114 3114 3114 3115 3114 3114 3114 3114 3113 3113 3112 3112 3111 3111 3110 3109 3108 3107 3107 3106 3105 3104 3103 3103 3102 3101 3100 3099 3098 3097 3096 3095 3094 3093 3092 3091 3090 3089 3088 3087 3086 3085 3084 3082 3081 3080 3079 3077 3076 3074 3073 3071 3069 3068 3067 3065 3064 3062 3060 3058 3057 3055 3054 3052 3050 3048 3047 3045 3043 3041 3040 3038 3035 3033 3031 3029 3026 3024 3022 3020 3018 3015 3014 3012 3009
3114 3114 3114 3114 3114 3114 3114 3113 3113 3113 3112 3112 3111 3110 3110 3109 3108 3107 3106 3106 3105 3104 3103 3103 3102 3101 3100 3099 3098 3097 3096 3095 3094 3093 3092 3091 3090 3089 3088 3087 3086 3084 3083 3082 3081 3079 3078 3076 3075 3073 3071 3070 3068 3067 3066 3064 3062 3060 3059 3057 3055 3054 3052 3051 3049 3047 3045 3043 3042 3040 3038 3035 3033 3031 3029 3027 3024 3022 3019 3018 3016 3014 3011 3009 3007
3114 3114 3114 3114 3114 3114 3113 3113 3112 3112 3112 3111 3110 3110 3109 3109 3108 3107 3106 3106 3105 3104 3103 3102 3102 3101 3100 3099 3098 3097 3096 3094 3093 3093 3092 3091 3090 3089 3088 3086 3085 3084 3083 3082 3080 3079 3077 3075 3074 3072 3070 3069 3067 3066 3064 3063 3061 3059 3057 3056 3054 3053 3051 3050 3048 3046 3044 3042 3039 3038 3035 3033 3031 3029 3027 3024 3022 3019 3017 3015 3014 3012 3009 3007 3005
3114 3114 3114 3114 3114 3113 3113 3113 3112 3112 3111 3111 3110 3110 3109 3108 3108 3107 3106 3106 3105 3104 3103 3102 3102 3101 3100 3099 3097 3096 3095 3094 3093 3092 3091 3090 3089 3088 3087 3086 3085 3084 3083 3082 3080 3078 3077 3075 3073 3072 3070 3068 3066 3065 3063 3061 3059 3057 3056 3054 3053 3051 3050 3048 3046 3044 3042 3040 3038 3036 3033 3031 3028 3026 3024 3022 3020 3018 3015 3013 3012 3010 3008 3005 3002
3113 3113 3113 3113 3113 3113 3113 3112 3112 3111 3111 3110 3110 3109 3109 3108 3107 3107 3106 3105 3105 3104 3103 3102 3101 3100 3100 3098 3097 3096 3095 3094 3093 3092 3091 3090 3089 3088 3087 3086 3085 3084 3083 3081 3079 3078 3076 3074 3073 3071 3070 3068 3066 3064 3062 3060 3058 3056 3055 3053 3051 3050 3048 3046 3044 3042 3039 3038 3036 3034 3031 3029 3026 3024 3022 3020 3018 3016 3014 3011 3009 3007 3005 3003 3000
3113 3113 3113 3113 3113 3113 3112 3112 3111 3111 3111 3110 3109 3109 3108 3108 3107 3107 3106 3105 3104 3103 3103 3102 3101 3100 3099 3098 3096 3096 3095 3094 3093 3092 3091 3090 3088 3088 3087 3086 3085 3084 3082 3080 3079 3077 3075 3074 3072 3071 3069 3067 3065 3063 3061 3059 3057 3055 3054 3052 3050 3048 3046 3044 3042 3039 3037 3036 3034 3032 3029 3026 3024 3021 3019 3018 3015 3014 3012 3010 3007 3005 3002 3000 2997
3113 3113 3113 3113 3112 3112 3111 3111 3111 3110 3110 3109 3109 3108 3108 3107 3107 3106 3106 3105 3104 3103 3103 3102 3101 3099 3098 3097 3096 3096 3095 3093 3092 3091 3090 3089 3088 3088 3087 3086 3085 3083 3081 3080 3078 3077 3075 3073 3072 3070 3069 3067 3065 3063 3061 3058 3056 3054 3052 3051 3049 3047 3045 3043 3040 3038 3036 3034 3032 3029 3027 3024 3022 3020 3017 3015 3013 3011 3010 3007 3004 3002 3000 2997 2994
3113 3113 3112 3112 3112 3111 3111 3111 3110 3110 3110 3109 3109 3108 3108 3107 3107 3106 3106 3105 3105 3104 3102 3101 3100 3099 3098 3097 3096 3096 3095 3093 3092 3091 3090 3089 3089 3088 3087 3086 3084 3083 3081 3080 3078 3076 3075 3073 3072 3070 3068 3066 3064 3063 3061 3058 3056 3054 3051 3049 3047 3045 3043 3041 3039 3036 3034 3031 3029 3027 3024 3022 3021 3018 3016 3014 3011 3009 3007 3005 3002 3000 2997 2994 2992
3112 3112 3112 3112 3111 3111 3110 3110 3110 3109 3109 3109 3109 3108 3108 3107 3107 3106 3106 3105 3105 3104 3102 3101 3100 3099 3098 3097 3096 3095 3094 3093 3092 3091 3090 3089 3088 3087 3086 3085 3084 3083 3081 3080 3078 3077 3075 3074 3072 3070 3068 3066 3064 3062 3060 3058 3056 3053 3051 3048 3046 3044 3042 3040 3037 3035 3032 3030 3028 3026 3023 3021 3019 3017 3015 3012 3009 3007 3004 3002 2999 2997 2994 2992 2989
3112 3112 3112 3111 3111 3111 3110 3110 3110 3109 3109 3109 3108 3108 3108 3107 3107 3106 3106 3105 3104 3104 3102 3101 3100 3099 3098 3097 3096 3095 3094 3093 3092 3091 3090 3089 3088 3087 3086 3085 3084 3083 3081 3080 3078 3077 3075 3073 3072 3070 3068 3066 3064 3062 3060 3057 3055 3053 3050 3048 3045 3043 3041 3038 3035 3033 3031 3029 3026 3024 3022 3020 3017 3015 3013 3010 3008 3005 3003 3000 2997 2994 2992 2989 2986
3112 3112 3112 3111 3111 3111 3110 3110 3109 3109 3109 3109 3108 3108 3108 3107 3106 3106 3106 3105 3104 3103 3102 3101 3099 3098 3098 3097 3096 3095 3094 3093 3092 3091 3090 3089 3088 3087 3086 3085 3084 3083 3081 3080 3079 3077 3075 3073 3071 3069 3067 3065 3063 3061 3059 3057 3055 3053 3050 3047 3045 3042 3039 3037 3034 3031 3029 3027 3025 3023 3020 3017 3015 3013 3011 3008 3006 3003 3000 2998 2995 2992 2989 2987 2984
3113 3112 3112 3112 3111 3111 3110 3110 3109 3109 3109 3109 3108 3108 3107 3107 3106 3105 3105 3105 3104 3103 3102 3101 3100 3099 3098 3097 3097 3096 3095 3093 3092 3091 3090 3089 3088 3087 3086 3085 3084 3083 3081 3080 3078 3076 3074 3073 3071 3069 3067 3065 3062 3060 3058 3056 3054 3052 3050 3047 3044 3041 3038 3035 3032 3029 3026 3025 3022 3020 3017 3015 3013 3011 3009 3007 3004 3002 2999 2996 2994 2991 2988 2985 2982
3113 3112 3112 3111 3111 3111 3110 3110 3109 3109 3109 3108 3108 3108 3107 3107 3106 3106 3105 3104 3103 3102 3101 3100 3099 3099 3099 3098 3097 3096 3095 3094 3093 3091 3090 3089 3088 3087 3086 3085 3084 3082 3081 3080 3078 3076 3074 3072 3070 3068 3066 3064 3062 3059 3057 3054 3052 3049 3048 3046 3044 3042 3038 3035 3031 3027 3024 3021 3019 3017 3015 3013 3011 3009 3007 3005 3003 3001 2998 2996 2993 2990 2987 2983 2980
3113 3112 3112 3111 3111 3111 3110 3110 3109 3109 3108 3108 3108 3107 3107 3107 3106 3106 3105 3104 3104 3103 3101 3100 3099 3099 3099 3098 3097 3096 3094 3094 3092 3091 3090 3089 3088 3087 3087 3085 3084 3082 3081 3079 3077 3076 3074 3072 3070 3068 3066 3064 3062 3059 3056 3053 3050 3048 3045 3042 3040 3039 3037 3034 3031 3026 3023 3020 3017 3015 3014 3012 3010 3008 3006 3003 3002 3000 2997 2994 2991 2988 2985 2982 2978
3112 3112 3112 3111 3111 3110 3110 3109 3109 3108 3108 3108 3108 3107 3107 3106 3106 3105 3105 3104 3104 3103 3102 3100 3100 3099 3099 3098 3097 3095 3094 3093 3092 3091 3091 3089 3088 3088 3086 3085 3084 3082 3081 3079 3077 3075 3074 3072 3070 3067 3065 3064 3061 3058 3055 3052 3049 3046 3043 3040 3038 3035 3033 3031 3029 3025 3022 3020 3017 3015 3013 3011 3009 3007 3005 3002 3000 2998 2996 2993 2990 2987 2984 2980 2977
3112 3112 3111 3111 3110 3110 3109 3109 3108 3108 3108 3107 3107 3107 3107 3106 3106 3105 3105 3104 3104 3103 3102 3101 3100 3099 3098 3097 3096 3095 3094 3093 3093 3092 3091 3089 3089 3088 3086 3085 3084 3082 3081 3079 3077 3075 3073 3071 3069 3067 3065 3063 3060 3058 3055 3052 3048 3045 3041 3038 3035 3033 3030 3029 3028 3026 3022 3019 3017 3015 3013 3011 3009 3006 3003 3001 2999 2997 2995 2992 2989 2986 2983 2979 2976
3112 3112 3111 3111 3110 3109 3109 3109 3108 3108 3107 3107 3107 3107 3107 3106 3106 3105 3105 3105 3104 3103 3102 3101 3100 3099 3098 3097 3096 3095 3094 3094 3093 3092 3091 3090 3089 3088 3086 3085 3084 3082 3081 3079 3077 3075 3073 3071 3069 3067 3064 3062 3059 3057 3054 3052 3049 3045 3042 3038 3034 3031 3028 3025 3025 3025 3023 3019 3016 3014 3012 3010 3008 3005 3002 3000 2998 2996 2994 2991 2988 2985 2982 2978 2975
3112 3112 3111 3111 3110 3109 3109 3108 3108 3108 3107 3107 3107 3107 3106 3106 3106 3105 3105 3104 3103 3102 3102 3101 3100 3099 3098 3098 3097 3096 3095 3094 3093 3092 3091 3090 3089 3088 3087 3085 3084 3082 3080 3079 3077 3075 3073 3070 3068 3066 3064 3061 3059 3056 3054 3051 3048 3045 3042 3039 3036 3032 3028 3024 3021 3020 3020 3019 3016 3013 3011 3009 3007 3004 3002 3000 2997 2995 2993 2990 2988 2985 2981 2978 2974
3112 3112 3111 3111 3110 3109 3109 3109 3108 3108 3107 3107 3107 3107 3106 3106 3105 3105 3105 3104 3103 3102 3102 3101 3100 3099 3098 3098 3097 3096 3096 3095 3093 3092 3091 3090 3089 3088 3087 3085 3084 3082 3080 3079 3077 3074 3072 3070 3068 3065 3063 3061 3058 3055 3052 3049 3047 3045 3042 3039 3036 3033 3029 3026 3022 3018 3016 3015 3015 3013 3011 3009 3007 3004 3001 2999 2997 2994 2992 2990 2987 2984 2980 2977 2974
3112 3112 3112 3111 3110 3110 3109 3109 3108 3108 3108 3107 3107 3107 3106 3106 3105 3105 3104 3104 3103 3102 3102 3101 3100 3099 3099 3098 3097 3096 3095 3094 3093 3092 3091 3090 3089 3088 3087 3085 3083 3082 3080 3078 3076 3074 3072 3070 3067 3065 3062 3060 3057 3054 3051 3049 3046 3043 3041 3038 3036 3033 3029 3026 3023 3020 3016 3013 3011 3011 3009 3008 3007 3004 3001 2999 2996 2994 2992 2990 2987 2983 2980 2977 2973
3113 3112 3112 3111 3111 3110 3110 3109 3109 3108 3108 3108 3107 3107 3106 3106 3105 3105 3104 3104 3103 3102 3101 3101 3100 3099 3098 3098 3097 3096 3095 3094 3093 3092 3091 3090 3089 3088 3086 3085 3083 3081 3080 3078 3076 3074 3071 3069 3067 3064 3062 3059 3056 3053 3051 3048 3046 3043 3040 3037 3034 3031 3029 3026 3023 3020 3017 3014 3011 3009 3007 3006 3005 3003 3000 2998 2996 2993 2991 2990 2987 2984 2981 2977 2973
3113 3112 3112 3112 3111 3111 3110 3110 3109 3109 3108 3108 3107 3107 3106 3106 3105 3105 3104 3104 3103 3102 3101 3100 3100 3099 3098 3097 3097 3096 3095 3094 3093 3092 3091 3090 3089 3087 3086 3084 3082 3081 3079 3077 3075 3073 3071 3069 3066 3064 3062 3059 3056 3053 3050 3048 3045 3043 3040 3036 3033 3030 3027 3025 3021 3018 3016 3014 3011 3009 3007 3005 3004 3002 2999 2997 2996 2993 2991 2990 2987 2984 2981 2977 2973